2018-112B (43910 NORAD) Tracking and Keplerian Element Data

This shows tracking and keplerian element data for the satellite.

Feedback or suggestion? Click here.




ElementValue
Catalog43910
Name2018-112B
Epoch Orbit280
Epoch Day16.85931896
Epoch Year2019
RAAN95.2507
Inclination50.0158
Eccentricity0.0007002
Argument of Perigee337.328
Mean Anonmoly132.129
Mean Motion15.15491748
Decay Rate9.04E-06
L11 43910U 18112B 19016.85931896 .00000904 00000-0 63074-4 0 9993
L22 43910 50.0158 95.2507 0007002 337.3280 132.1290 15.15491748 2804

Live tracking and technical data element details for 2018-112B (NORAD 43910). 2018-112B can be tracked NOW for your location showing map with azimuth and elevation plus other details from your city location.

Track the satellite on the map from your city or location and see movement details for azimuth, elevation, latitude, longitude, range, height, and movement on the map or in text.







IsCatalogInMostPopularTable: catalog: 43910, numindb: 12
Update: records affected: 1



GetName: 43910 2018-112B

Hit Count: updated at: Thu, 17 Jan 2019 14:38:12 GMT